| time (UTC) | temp C | wind direction | speed KPH | gust KPH | rain 1hr cm | rain 24hr cm | rain mn cm | humidity % | barometer mb |
| 20260506151203 | 10 | 181 | 0.0 | 3.2 | 0.00 | 0.00 | 0.00 | 95 | 1019.2 |
| 20260506150624 | 10 | 0 | 0.0 | 0.0 | 0.00 | 0.00 | 0.00 | 95 | 1019.1 |
| 20260506150024 | 10 | 0 | 0.0 | 0.0 | 0.00 | 0.00 | 0.00 | 95 | 1019.2 |
| 20260506145403 | 10 | 0 | 0.0 | 0.0 | 0.00 | 0.03 | 0.00 | 95 | 1019.1 |
| 20260506144803 | 10 | 0 | 0.0 | 0.0 | 0.00 | 0.03 | 0.00 | 95 | 1019.2 |
| 20260506144224 | 10 | 0 | 0.0 | 0.0 | 0.00 | 0.03 | 0.00 | 95 | 1019.2 |
| 20260506143603 | 10 | 181 | 0.0 | 6.4 | 0.00 | 0.03 | 0.00 | 95 | 1019.1 |
| 20260506143024 | 10 | 181 | 0.0 | 6.4 | 0.00 | 0.03 | 0.00 | 95 | 1019.0 |
| 20260506142403 | 10 | 0 | 0.0 | 0.0 | 0.00 | 0.03 | 0.00 | 95 | 1019.0 |
| 20260506141803 | 10 | 181 | 0.0 | 1.6 | 0.00 | 0.03 | 0.00 | 95 | 1019.0 |
| 20260506141203 | 10 | 181 | 0.0 | 1.6 | 0.00 | 0.03 | 0.00 | 95 | 1019.0 |
| 20260506140603 | 10 | 181 | 0.0 | 3.2 | 0.00 | 0.03 | 0.00 | 95 | 1018.9 |
| 20260506140003 | 10 | 0 | 0.0 | 0.0 | 0.00 | 0.03 | 0.00 | 95 | 1018.8 |
| 20260506135424 | 10 | 181 | 0.0 | 3.2 | 0.00 | 0.03 | 0.00 | 95 | 1018.7 |
| 20260506134824 | 10 | 181 | 0.0 | 3.2 | 0.00 | 0.03 | 0.00 | 95 | 1018.7 |
| 20260506134203 | 10 | 181 | 0.0 | 3.2 | 0.00 | 0.03 | 0.00 | 95 | 1018.5 |
| 20260506133603 | 10 | 181 | 0.0 | 3.2 | 0.00 | 0.03 | 0.00 | 95 | 1018.5 |
| 20260506133024 | 10 | 181 | 0.0 | 3.2 | 0.00 | 0.03 | 0.00 | 95 | 1018.5 |
| 20260506132424 | 10 | 181 | 0.0 | 3.2 | 0.00 | 0.03 | 0.00 | 95 | 1018.5 |
| 20260506131803 | 10 | 181 | 0.0 | 3.2 | 0.00 | 0.03 | 0.00 | 95 | 1018.5 |
| 20260506131203 | 10 | 181 | 0.0 | 3.2 | 0.00 | 0.03 | 0.00 | 95 | 1018.6 |
| 20260506130603 | 10 | 181 | 0.0 | 3.2 | 0.00 | 0.03 | 0.00 | 95 | 1018.6 |
| 20260506130003 | 10 | 181 | 0.0 | 3.2 | 0.00 | 0.03 | 0.00 | 95 | 1018.6 |
| 20260506125403 | 10 | 181 | 0.0 | 3.2 | 0.00 | 0.03 | 0.00 | 95 | 1018.6 |
| 20260506124803 | 10 | 181 | 0.0 | 3.2 | 0.00 | 0.03 | 0.00 | 95 | 1018.6 |
| 20260506124203 | 10 | 181 | 0.0 | 3.2 | 0.00 | 0.03 | 0.00 | 95 | 1018.5 |
| 20260506123603 | 10 | 181 | 0.0 | 3.2 | 0.00 | 0.03 | 0.00 | 95 | 1018.4 |
| 20260506123003 | 10 | 181 | 0.0 | 3.2 | 0.00 | 0.03 | 0.00 | 95 | 1018.4 |
| 20260506122403 | 10 | 181 | 0.0 | 3.2 | 0.00 | 0.03 | 0.00 | 95 | 1018.3 |
| 20260506121803 | 10 | 181 | 0.0 | 3.2 | 0.00 | 0.03 | 0.00 | 95 | 1018.2 |
| 20260506121224 | 10 | 181 | 0.0 | 3.2 | 0.00 | 0.03 | 0.00 | 95 | 1018.4 |
| 20260506120603 | 10 | 0 | 0.0 | 0.0 | 0.00 | 0.03 | 0.00 | 95 | 1018.3 |
| 20260506120003 | 10 | 0 | 0.0 | 0.0 | 0.00 | 0.03 | 0.00 | 95 | 1018.2 |
| 20260506115403 | 10 | 181 | 0.0 | 1.6 | 0.00 | 0.03 | 0.00 | 95 | 1018.2 |
| 20260506114803 | 10 | 181 | 0.0 | 1.6 | 0.00 | 0.03 | 0.00 | 95 | 1018.2 |
| 20260506114203 | 10 | 0 | 0.0 | 0.0 | 0.00 | 0.03 | 0.00 | 95 | 1018.3 |
| 20260506113603 | 10 | 0 | 0.0 | 0.0 | 0.00 | 0.03 | 0.00 | 95 | 1018.2 |
| 20260506113003 | 10 | 181 | 0.0 | 3.2 | 0.00 | 0.03 | 0.00 | 95 | 1018.2 |
| 20260506112403 | 10 | 181 | 0.0 | 3.2 | 0.00 | 0.03 | 0.00 | 95 | 1018.2 |
| 20260506111803 | 10 | 181 | 0.0 | 3.2 | 0.00 | 0.03 | 0.00 | 95 | 1018.2 |
| 20260506111203 | 10 | 181 | 0.0 | 3.2 | 0.00 | 0.03 | 0.00 | 95 | 1018.0 |
| 20260506110603 | 10 | 181 | 0.0 | 3.2 | 0.00 | 0.03 | 0.00 | 95 | 1017.9 |
| 20260506110003 | 10 | 181 | 0.0 | 3.2 | 0.00 | 0.03 | 0.00 | 95 | 1017.8 |
| 20260506105403 | 10 | 181 | 1.6 | 4.8 | 0.00 | 0.03 | 0.00 | 95 | 1017.8 |
| 20260506104803 | 10 | 181 | 1.6 | 4.8 | 0.00 | 0.03 | 0.00 | 95 | 1017.8 |
| 20260506104203 | 10 | 181 | 0.0 | 3.2 | 0.00 | 0.03 | 0.00 | 95 | 1017.8 |
| 20260506103603 | 10 | 181 | 0.0 | 3.2 | 0.00 | 0.05 | 0.00 | 95 | 1017.8 |
| 20260506103025 | 10 | 181 | 0.0 | 3.2 | 0.00 | 0.05 | 0.00 | 95 | 1017.7 |
| 20260506102403 | 10 | 181 | 0.0 | 3.2 | 0.00 | 0.05 | 0.00 | 95 | 1017.6 |
| 20260506101803 | 10 | 181 | 0.0 | 1.6 | 0.00 | 0.05 | 0.00 | 95 | 1017.5 |
| 20260506101224 | 10 | 181 | 0.0 | 1.6 | 0.00 | 0.08 | 0.00 | 95 | 1017.5 |
| 20260506100624 | 10 | 181 | 0.0 | 1.6 | 0.00 | 0.08 | 0.00 | 95 | 1017.6 |
| 20260506100024 | 10 | 181 | 0.0 | 3.2 | 0.00 | 0.08 | 0.00 | 95 | 1017.5 |
| 20260506095424 | 10 | 181 | 0.0 | 3.2 | 0.00 | 0.13 | 0.00 | 95 | 1017.5 |
| 20260506094803 | 10 | 0 | 0.0 | 0.0 | 0.00 | 0.13 | 0.00 | 95 | 1017.4 |
| 20260506094203 | 10 | 181 | 0.0 | 1.6 | 0.00 | 0.13 | 0.00 | 95 | 1017.4 |
| 20260506093603 | 10 | 181 | 0.0 | 1.6 | 0.00 | 0.15 | 0.00 | 95 | 1017.5 |
| 20260506093024 | 10 | 0 | 0.0 | 0.0 | 0.00 | 0.15 | 0.00 | 95 | 1017.5 |
| 20260506092403 | 10 | 0 | 0.0 | 0.0 | 0.00 | 0.18 | 0.00 | 95 | 1017.5 |
| 20260506091803 | 10 | 181 | 0.0 | 3.2 | 0.00 | 0.18 | 0.00 | 95 | 1017.5 |
| 20260506091203 | 10 | 181 | 0.0 | 3.2 | 0.00 | 0.18 | 0.00 | 95 | 1017.5 |
| 20260506090624 | 10 | 0 | 0.0 | 0.0 | 0.00 | 0.20 | 0.00 | 95 | 1017.5 |
| 20260506090003 | 10 | 181 | 0.0 | 3.2 | 0.00 | 0.20 | 0.00 | 94 | 1017.6 |
| 20260506085403 | 10 | 181 | 0.0 | 3.2 | 0.00 | 0.23 | 0.00 | 94 | 1017.5 |
| 20260506084803 | 10 | 181 | 0.0 | 1.6 | 0.00 | 0.23 | 0.00 | 94 | 1017.5 |
| 20260506084224 | 10 | 181 | 0.0 | 1.6 | 0.00 | 0.25 | 0.00 | 94 | 1017.5 |
| 20260506083603 | 10 | 181 | 0.0 | 1.6 | 0.00 | 0.30 | 0.00 | 94 | 1017.6 |
| 20260506083003 | 10 | 181 | 0.0 | 3.2 | 0.00 | 0.30 | 0.00 | 94 | 1017.5 |
| 20260506082403 | 10 | 181 | 0.0 | 3.2 | 0.00 | 0.33 | 0.00 | 95 | 1017.6 |
| 20260506081824 | 10 | 0 | 0.0 | 0.0 | 0.00 | 0.33 | 0.00 | 95 | 1017.6 |
| 20260506081203 | 10 | 0 | 0.0 | 0.0 | 0.00 | 0.36 | 0.00 | 95 | 1017.5 |
| 20260506080603 | 10 | 0 | 0.0 | 0.0 | 0.00 | 0.36 | 0.00 | 94 | 1017.6 |
| 20260506073003 | 10 | 0 | 0.0 | 0.0 | 0.00 | 0.51 | 0.00 | 94 | 1017.5 |
| 20260506072403 | 10 | 0 | 0.0 | 0.0 | 0.00 | 0.53 | 0.00 | 94 | 1017.5 |
| 20260506071803 | 10 | 181 | 0.0 | 1.6 | 0.00 | 0.53 | 0.00 | 94 | 1017.4 |
| 20260506071224 | 10 | 0 | 0.0 | 0.0 | 0.00 | 0.56 | 0.00 | 94 | 1017.3 |
| 20260506070603 | 10 | 0 | 0.0 | 0.0 | 0.00 | 0.58 | 0.00 | 94 | 1017.2 |
| 20260506062403 | 10 | 0 | 0.0 | 0.0 | 0.00 | 0.76 | 0.61 | 94 | 1017.0 |
| 20260506061803 | 10 | 181 | 0.0 | 1.6 | 0.00 | 0.79 | 0.61 | 94 | 1017.1 |
| 20260506061224 | 10 | 181 | 0.0 | 1.6 | 0.00 | 0.81 | 0.61 | 94 | 1017.1 |
| 20260506060603 | 10 | 0 | 0.0 | 0.0 | 0.00 | 0.81 | 0.61 | 94 | 1017.0 |
| 20260506051224 | 10 | 0 | 0.0 | 0.0 | 0.00 | 1.09 | 0.61 | 94 | 1016.5 |
| 20260506050603 | 10 | 0 | 0.0 | 0.0 | 0.00 | 1.12 | 0.61 | 94 | 1016.4 |
| 20260506044803 | 10 | 181 | 0.0 | 3.2 | 0.00 | 1.17 | 0.61 | 94 | 1016.2 |
| 20260506044224 | 10 | 181 | 0.0 | 3.2 | 0.00 | 1.19 | 0.61 | 94 | 1016.3 |
| 20260506043603 | 10 | 0 | 0.0 | 0.0 | 0.00 | 1.22 | 0.61 | 94 | 1016.2 |
| 20260506043003 | 10 | 0 | 0.0 | 0.0 | 0.00 | 1.24 | 0.61 | 94 | 1016.2 |
| 20260506042403 | 10 | 0 | 0.0 | 0.0 | 0.00 | 1.30 | 0.61 | 94 | 1016.1 |
| 20260506041803 | 10 | 0 | 0.0 | 0.0 | 0.00 | 1.30 | 0.61 | 94 | 1016.2 |
| 20260506041203 | 10 | 0 | 0.0 | 0.0 | 0.00 | 1.32 | 0.61 | 94 | 1016.1 |
| 20260506040624 | 10 | 0 | 0.0 | 0.0 | 0.00 | 1.35 | 0.61 | 94 | 1016.1 |
| 20260506040003 | 10 | 0 | 0.0 | 0.0 | 0.00 | 1.37 | 0.61 | 94 | 1015.7 |
| 20260506035424 | 10 | 0 | 0.0 | 0.0 | 0.00 | 1.40 | 0.61 | 94 | 1015.8 |
| 20260506034803 | 10 | 0 | 0.0 | 0.0 | 0.00 | 1.42 | 0.61 | 94 | 1015.8 |
| 20260506034203 | 10 | 181 | 0.0 | 3.2 | 0.00 | 1.45 | 0.61 | 94 | 1015.5 |
| 20260506033624 | 10 | 181 | 0.0 | 3.2 | 0.00 | 1.50 | 0.61 | 94 | 1015.4 |
| 20260506033003 | 10 | 0 | 0.0 | 0.0 | 0.00 | 1.52 | 0.61 | 94 | 1015.3 |
| 20260506032403 | 10 | 0 | 0.0 | 0.0 | 0.00 | 1.57 | 0.61 | 94 | 1015.4 |
| 20260506031824 | 10 | 0 | 0.0 | 0.0 | 0.00 | 1.60 | 0.61 | 93 | 1015.5 |
| 20260506031203 | 10 | 0 | 0.0 | 0.0 | 0.00 | 1.63 | 0.61 | 93 | 1015.6 |
| 20260506030624 | 10 | 0 | 0.0 | 0.0 | 0.00 | 1.70 | 0.61 | 93 | 1015.5 |
| 20260506030003 | 10 | 0 | 0.0 | 0.0 | 0.00 | 1.70 | 0.61 | 93 | 1015.5 |
| 20260506025403 | 10 | 0 | 0.0 | 0.0 | 0.00 | 1.75 | 0.61 | 93 | 1015.3 |
| 20260506024824 | 10 | 0 | 0.0 | 0.0 | 0.00 | 1.78 | 0.61 | 93 | 1015.1 |
| 20260506024204 | 10 | 181 | 0.0 | 3.2 | 0.00 | 1.80 | 0.61 | 93 | 1015.0 |
| 20260506023603 | 10 | 181 | 0.0 | 3.2 | 0.00 | 1.80 | 0.61 | 93 | 1015.1 |
| 20260506023003 | 10 | 181 | 0.0 | 1.6 | 0.00 | 1.83 | 0.61 | 93 | 1015.0 |
| 20260506022403 | 10 | 181 | 0.0 | 1.6 | 0.00 | 1.88 | 0.61 | 93 | 1014.9 |
| 20260506021803 | 10 | 181 | 0.0 | 3.2 | 0.00 | 1.91 | 0.61 | 93 | 1014.9 |
| 20260506021203 | 10 | 181 | 0.0 | 6.4 | 0.00 | 1.93 | 0.61 | 93 | 1014.8 |
| 20260506020603 | 10 | 181 | 1.6 | 6.4 | 0.00 | 1.93 | 0.61 | 93 | 1014.8 |
| 20260506020003 | 10 | 181 | 3.2 | 6.4 | 0.00 | 1.98 | 0.61 | 93 | 1014.5 |
| 20260506015403 | 10 | 181 | 1.6 | 8.0 | 0.00 | 1.98 | 0.61 | 93 | 1014.5 |
| 20260506014803 | 10 | 184 | 3.2 | 8.0 | 0.00 | 2.01 | 0.61 | 93 | 1014.5 |
| 20260506014203 | 10 | 196 | 3.2 | 8.0 | 0.00 | 2.03 | 0.61 | 94 | 1014.4 |
| 20260506013624 | 10 | 213 | 1.6 | 8.0 | 0.00 | 2.08 | 0.61 | 94 | 1014.5 |
| 20260506013003 | 10 | 225 | 1.6 | 6.4 | 0.00 | 2.11 | 0.61 | 94 | 1014.5 |
| 20260506012403 | 10 | 225 | 1.6 | 4.8 | 0.00 | 2.13 | 0.61 | 94 | 1014.7 |
| 20260506011803 | 10 | 225 | 1.6 | 4.8 | 0.00 | 2.16 | 0.61 | 93 | 1014.7 |
| 20260506011224 | 10 | 0 | 0.0 | 0.0 | 0.00 | 2.18 | 0.61 | 93 | 1014.7 |
| 20260506010603 | 10 | 225 | 1.6 | 4.8 | 0.00 | 2.21 | 0.61 | 93 | 1014.8 |
| 20260506010003 | 10 | 225 | 1.6 | 6.4 | 0.00 | 2.26 | 0.61 | 93 | 1014.7 |
| 20260506005403 | 10 | 225 | 1.6 | 6.4 | 0.00 | 2.29 | 0.61 | 93 | 1014.6 |
| 20260506004824 | 10 | 225 | 1.6 | 6.4 | 0.00 | 2.31 | 0.61 | 93 | 1014.5 |
| 20260506004203 | 10 | 225 | 1.6 | 6.4 | 0.00 | 2.34 | 0.61 | 93 | 1014.5 |
| 20260506003603 | 10 | 225 | 1.6 | 4.8 | 0.00 | 2.39 | 0.61 | 93 | 1014.4 |
| 20260506003003 | 10 | 225 | 1.6 | 4.8 | 0.00 | 2.46 | 0.61 | 93 | 1014.3 |
| 20260506002403 | 10 | 225 | 0.0 | 4.8 | 0.00 | 2.49 | 0.61 | 93 | 1014.4 |
| 20260506001803 | 10 | 224 | 1.6 | 8.0 | 0.00 | 2.51 | 0.61 | 93 | 1014.2 |
| 20260506001203 | 10 | 223 | 1.6 | 8.0 | 0.00 | 2.57 | 0.61 | 93 | 1014.2 |
| 20260506000603 | 10 | 221 | 0.0 | 6.4 | 0.00 | 2.59 | 0.61 | 93 | 1014.3 |
| 20260506000003 | 10 | 226 | 3.2 | 6.4 | 0.00 | 2.62 | 0.61 | 93 | 1014.2 |
| 20260505235403 | 10 | 255 | 3.2 | 8.0 | 0.00 | 2.62 | 0.61 | 93 | 1014.1 |
| 20260505234803 | 10 | 298 | 0.0 | 3.2 | 0.00 | 2.69 | 0.61 | 93 | 1014.2 |
| 20260505234203 | 10 | 298 | 0.0 | 6.4 | 0.00 | 2.72 | 0.61 | 93 | 1014.3 |
| 20260505233603 | 10 | 298 | 0.0 | 1.6 | 0.00 | 2.72 | 0.61 | 93 | 1014.2 |
| 20260505233024 | 10 | 298 | 0.0 | 1.6 | 0.00 | 2.72 | 0.61 | 92 | 1014.3 |
| 20260505232403 | 10 | 298 | 0.0 | 3.2 | 0.00 | 2.74 | 0.61 | 92 | 1014.3 |
| 20260505231803 | 10 | 298 | 0.0 | 6.4 | 0.00 | 2.74 | 0.61 | 92 | 1014.3 |
| 20260505231203 | 10 | 298 | 0.0 | 6.4 | 0.00 | 2.74 | 0.61 | 92 | 1014.3 |
| 20260505230624 | 10 | 300 | 1.6 | 8.0 | 0.00 | 2.79 | 0.61 | 92 | 1014.3 |
| 20260505230003 | 10 | 301 | 1.6 | 8.0 | 0.00 | 2.87 | 0.61 | 92 | 1014.4 |
| 20260505225403 | 10 | 306 | 0.0 | 6.4 | 0.00 | 2.92 | 0.61 | 92 | 1014.4 |
| 20260505224803 | 10 | 306 | 0.0 | 6.4 | 0.00 | 2.97 | 0.61 | 92 | 1014.4 |
| 20260505224203 | 10 | 306 | 0.0 | 8.0 | 0.00 | 3.00 | 0.61 | 91 | 1014.4 |
| 20260505223624 | 10 | 306 | 1.6 | 8.0 | 0.00 | 3.00 | 0.61 | 92 | 1014.4 |
| 20260505223003 | 10 | 305 | 1.6 | 8.0 | 0.00 | 3.00 | 0.61 | 92 | 1014.4 |
| 20260505222424 | 10 | 305 | 4.8 | 11.3 | 0.00 | 3.05 | 0.61 | 92 | 1014.5 |
| 20260505221803 | 10 | 312 | 4.8 | 11.3 | 0.00 | 3.07 | 0.61 | 92 | 1014.5 |
| 20260505221203 | 10 | 314 | 3.2 | 11.3 | 0.00 | 3.10 | 0.61 | 91 | 1014.5 |
| 20260505220603 | 10 | 302 | 1.6 | 8.0 | 0.00 | 3.15 | 0.61 | 92 | 1014.5 |
| 20260505220003 | 10 | 272 | 0.0 | 6.4 | 0.00 | 3.17 | 0.61 | 91 | 1014.5 |
| 20260505215403 | 10 | 272 | 0.0 | 6.4 | 0.00 | 3.20 | 0.61 | 91 | 1014.5 |
| 20260505214803 | 10 | 270 | 0.0 | 6.4 | 0.00 | 3.20 | 0.61 | 91 | 1014.5 |
| 20260505214203 | 10 | 270 | 1.6 | 6.4 | 0.00 | 3.25 | 0.61 | 91 | 1014.6 |
| 20260505213603 | 10 | 272 | 1.6 | 6.4 | 0.00 | 3.25 | 0.61 | 92 | 1014.6 |
| 20260505213003 | 10 | 308 | 3.2 | 11.3 | 0.00 | 3.25 | 0.61 | 91 | 1014.7 |
| 20260505212403 | 10 | 303 | 4.8 | 11.3 | 0.00 | 3.28 | 0.61 | 91 | 1014.7 |
| 20260505211803 | 10 | 307 | 4.8 | 11.3 | 0.00 | 3.30 | 0.61 | 91 | 1014.7 |
| 20260505211203 | 10 | 301 | 1.6 | 9.7 | 0.00 | 3.33 | 0.61 | 91 | 1014.7 |
| 20260505210603 | 10 | 259 | 0.0 | 6.4 | 0.00 | 3.38 | 0.61 | 91 | 1014.6 |
| 20260505210003 | 10 | 261 | 1.6 | 6.4 | 0.00 | 3.43 | 0.61 | 90 | 1014.6 |
| 20260505205403 | 10 | 270 | 1.6 | 8.0 | 0.00 | 3.45 | 0.61 | 91 | 1014.6 |
| 20260505204803 | 10 | 251 | 1.6 | 9.7 | 0.00 | 3.45 | 0.61 | 91 | 1014.5 |
| 20260505204203 | 10 | 265 | 1.6 | 9.7 | 0.00 | 3.48 | 0.61 | 91 | 1014.5 |
| 20260505203603 | 10 | 267 | 1.6 | 9.7 | 0.00 | 3.48 | 0.61 | 91 | 1014.4 |
| 20260505203003 | 10 | 285 | 1.6 | 9.7 | 0.00 | 3.48 | 0.61 | 91 | 1014.3 |
| 20260505202403 | 10 | 296 | 3.2 | 11.3 | 0.00 | 3.51 | 0.61 | 90 | 1014.3 |
| 20260505201803 | 10 | 303 | 4.8 | 12.9 | 0.00 | 3.51 | 0.61 | 90 | 1014.4 |
| 20260505201203 | 10 | 303 | 6.4 | 14.5 | 0.00 | 3.53 | 0.61 | 90 | 1014.5 |
| 20260505200603 | 10 | 307 | 6.4 | 14.5 | 0.00 | 3.56 | 0.61 | 89 | 1014.5 |
| 20260505200003 | 10 | 310 | 6.4 | 12.9 | 0.00 | 3.58 | 0.61 | 89 | 1014.5 |
| 20260505195403 | 10 | 297 | 3.2 | 12.9 | 0.00 | 3.66 | 0.61 | 89 | 1014.6 |
| 20260505194803 | 10 | 280 | 1.6 | 9.7 | 0.00 | 3.71 | 0.61 | 89 | 1014.6 |
| 20260505194203 | 10 | 308 | 3.2 | 14.5 | 0.00 | 3.71 | 0.61 | 87 | 1014.6 |
| 20260505193624 | 10 | 313 | 4.8 | 14.5 | 0.00 | 3.73 | 0.61 | 88 | 1014.5 |
| 20260505193003 | 10 | 318 | 6.4 | 12.9 | 0.00 | 3.73 | 0.61 | 88 | 1014.5 |
| 20260505192424 | 10 | 316 | 6.4 | 12.9 | 0.00 | 3.73 | 0.61 | 88 | 1014.4 |
| 20260505191803 | 10 | 314 | 1.6 | 8.0 | 0.00 | 3.73 | 0.61 | 89 | 1014.4 |
| 20260505191203 | 10 | 331 | 3.2 | 11.3 | 0.00 | 3.73 | 0.61 | 90 | 1014.5 |
| 20260505190603 | 10 | 330 | 3.2 | 11.3 | 0.00 | 3.73 | 0.61 | 91 | 1014.4 |
| 20260505190003 | 10 | 316 | 1.6 | 8.0 | 0.00 | 3.73 | 0.61 | 91 | 1014.4 |
| 20260505185403 | 9 | 313 | 3.2 | 9.7 | 0.00 | 3.73 | 0.61 | 91 | 1014.4 |
| 20260505184824 | 9 | 312 | 3.2 | 9.7 | 0.00 | 3.73 | 0.61 | 90 | 1014.3 |
| 20260505184203 | 9 | 312 | 1.6 | 8.0 | 0.00 | 3.73 | 0.61 | 90 | 1014.4 |
| 20260505183603 | 9 | 310 | 3.2 | 9.7 | 0.00 | 3.73 | 0.61 | 91 | 1014.5 |
| 20260505183003 | 9 | 300 | 1.6 | 9.7 | 0.00 | 3.73 | 0.61 | 91 | 1014.5 |
| 20260505182424 | 9 | 286 | 1.6 | 9.7 | 0.00 | 3.73 | 0.61 | 92 | 1014.4 |
| 20260505181824 | 9 | 283 | 1.6 | 9.7 | 0.00 | 3.73 | 0.61 | 91 | 1014.3 |
| 20260505181203 | 8 | 300 | 1.6 | 9.7 | 0.00 | 3.73 | 0.61 | 93 | 1014.3 |
| 20260505180603 | 8 | 304 | 3.2 | 8.0 | 0.00 | 3.73 | 0.61 | 92 | 1014.3 |
| 20260505180003 | 8 | 302 | 3.2 | 9.7 | 0.00 | 3.73 | 0.61 | 92 | 1014.2 |
| 20260505175403 | 8 | 305 | 3.2 | 9.7 | 0.00 | 3.73 | 0.61 | 93 | 1014.2 |
| 20260505174803 | 8 | 305 | 3.2 | 9.7 | 0.00 | 3.73 | 0.61 | 92 | 1014.2 |
| 20260505174203 | 8 | 293 | 3.2 | 9.7 | 0.00 | 3.73 | 0.61 | 92 | 1014.1 |
| 20260505173603 | 9 | 175 | 1.6 | 9.7 | 0.00 | 3.73 | 0.61 | 93 | 1014.0 |
| 20260505173024 | 8 | 141 | 0.0 | 3.2 | 0.00 | 3.73 | 0.61 | 93 | 1013.9 |
| 20260505172403 | 8 | 141 | 0.0 | 3.2 | 0.00 | 3.73 | 0.61 | 92 | 1014.0 |
| 20260505171803 | 8 | 0 | 0.0 | 0.0 | 0.00 | 3.73 | 0.61 | 92 | 1013.9 |
| 20260505171203 | 8 | 0 | 0.0 | 0.0 | 0.00 | 3.73 | 0.61 | 92 | 1014.1 |
| 20260505170603 | 8 | 141 | 0.0 | 3.2 | 0.00 | 3.73 | 0.61 | 92 | 1014.0 |
| 20260505170024 | 8 | 141 | 0.0 | 6.4 | 0.00 | 3.73 | 0.61 | 92 | 1013.9 |
| 20260505165403 | 8 | 141 | 0.0 | 6.4 | 0.00 | 3.73 | 0.61 | 91 | 1014.0 |
| 20260505164803 | 8 | 141 | 0.0 | 1.6 | 0.00 | 3.73 | 0.61 | 91 | 1013.9 |
| 20260505164203 | 8 | 141 | 0.0 | 3.2 | 0.00 | 3.73 | 0.61 | 91 | 1013.9 |
| 20260505163603 | 8 | 141 | 1.6 | 8.0 | 0.00 | 3.73 | 0.61 | 93 | 1013.9 |
| 20260505163003 | 8 | 141 | 1.6 | 8.0 | 0.00 | 3.73 | 0.61 | 92 | 1014.0 |
| 20260505162403 | 8 | 141 | 0.0 | 6.4 | 0.00 | 3.73 | 0.61 | 93 | 1013.9 |
| 20260505161803 | 8 | 141 | 0.0 | 3.2 | 0.00 | 3.73 | 0.61 | 94 | 1013.7 |
| 20260505161203 | 7 | 141 | 1.6 | 6.4 | 0.00 | 3.73 | 0.61 | 93 | 1013.8 |
| 20260505160603 | 7 | 141 | 3.2 | 8.0 | 0.00 | 3.73 | 0.61 | 93 | 1013.6 |
| 20260505153024 | 7 | 141 | 0.0 | 3.2 | 0.03 | 3.73 | 0.61 | 95 | 1013.6 |
| 20260505152403 | 7 | 140 | 0.0 | 3.2 | 0.03 | 3.73 | 0.61 | 95 | 1013.7 |
| 20260505151803 | 7 | 140 | 1.6 | 6.4 | 0.03 | 3.73 | 0.61 | 95 | 1013.6 |